Terminal Aerodrome Forecast
Issued by NWS

Home | Current Version | Previous Version | Text Only | Print | Product List | Glossary On
Versions: 1 2 3 4 5 6 7 8 9 10 11 12 13 14 15 16 17 18 19 20
308
FTUS43 KDVN 241319 AAA
TAFCID
TAF AMD
KCID 241319Z 2413/2512 16005KT 3SM BR VCSH OVC005
     FM241500 23007KT P6SM SCT015 BKN100
      TEMPO 2415/2417 BKN015
     FM242000 20007KT P6SM VCSH SCT025 BKN035 PROB30 2422/2502 3SM
      -TSRA BR BKN020CB
     FM250200 33005KT 5SM -SHRA BR SCT015 BKN025=

USA.gov is the U.S. government's official web portal to all federal, state and local government web resources and services.